Time,TemperatureF,DewpointF,PressureIn,WindDirection,WindDirectionDegrees,WindSpeedMPH,WindSpeedGustMPH,Humidity,HourlyPrecipIn,Conditions,Clouds,dailyrainin,SolarRadiationWatts/m^2,SoftwareType,DateUTC
2013-04-09 00:02:00,23.0,12.0,-100.00,NE,44,3.0,11.0,61,0.00,,,0.01,0.000000,,2013-04-09 06:02:00,
2013-04-09 00:22:00,23.0,11.0,-100.00,NE,53,3.0,13.0,60,0.00,,,0.01,0.000000,,2013-04-09 06:22:00,
2013-04-09 00:32:00,23.0,11.0,-100.00,NE,53,3.0,13.0,60,0.00,,,0.01,0.000000,,2013-04-09 06:32:00,
2013-04-09 00:42:00,23.0,11.0,-100.00,NE,53,3.0,13.0,60,0.00,,,0.01,0.000000,,2013-04-09 06:42:00,
2013-04-09 00:52:00,23.0,11.0,-100.00,NE,53,3.0,13.0,60,0.00,,,0.01,0.000000,,2013-04-09 06:52:00,
2013-04-09 01:02:00,23.0,11.0,-100.00,NE,53,3.0,13.0,60,0.00,,,0.01,0.000000,,2013-04-09 07:02:00,
2013-04-09 01:22:00,22.0,11.0,-100.00,North,354,3.0,16.0,61,0.00,,,0.01,0.000000,,2013-04-09 07:22:00,
2013-04-09 01:32:00,22.0,11.0,-100.00,North,354,3.0,16.0,61,0.00,,,0.01,0.000000,,2013-04-09 07:32:00,
2013-04-09 01:42:00,22.0,11.0,-100.00,North,354,3.0,16.0,61,0.00,,,0.01,0.000000,,2013-04-09 07:42:00,
2013-04-09 01:52:00,22.0,11.0,-100.00,North,354,3.0,16.0,61,0.00,,,0.01,0.000000,,2013-04-09 07:52:00,
2013-04-09 02:02:00,22.0,11.0,-100.00,North,354,3.0,16.0,61,0.00,,,0.01,0.000000,,2013-04-09 08:02:00,
2013-04-09 02:32:00,21.0,14.0,-100.00,NE,51,3.0,15.0,73,0.00,,,0.01,0.000000,,2013-04-09 08:32:00,
2013-04-09 02:42:00,21.0,14.0,-100.00,NE,51,3.0,15.0,73,0.00,,,0.01,0.000000,,2013-04-09 08:42:00,
2013-04-09 02:52:00,21.0,14.0,-100.00,NE,51,3.0,15.0,73,0.00,,,0.01,0.000000,,2013-04-09 08:52:00,
2013-04-09 03:01:00,21.0,14.0,-100.00,NE,51,3.0,15.0,73,0.00,,,0.01,0.000000,,2013-04-09 09:01:00,
2013-04-09 03:03:00,20.0,13.0,-100.00,NE,43,3.0,15.0,74,0.00,,,0.01,0.000000,,2013-04-09 09:03:00,
2013-04-09 03:22:00,20.0,13.0,-100.00,NE,43,3.0,15.0,74,0.00,,,0.01,0.000000,,2013-04-09 09:22:00,
2013-04-09 03:33:00,20.0,13.0,-100.00,NE,43,3.0,15.0,74,0.00,,,0.01,0.000000,,2013-04-09 09:33:00,
2013-04-09 03:44:00,20.0,13.0,-100.00,NE,43,3.0,15.0,74,0.00,,,0.01,0.000000,,2013-04-09 09:44:00,
2013-04-09 03:52:00,20.0,13.0,-100.00,NE,43,3.0,15.0,74,0.00,,,0.01,0.000000,,2013-04-09 09:52:00,
2013-04-09 04:24:00,21.0,11.0,-100.00,NE,44,3.0,14.0,64,0.00,,,0.01,0.000000,,2013-04-09 10:24:00,
2013-04-09 04:33:00,21.0,11.0,-100.00,NE,44,3.0,14.0,64,0.00,,,0.01,0.000000,,2013-04-09 10:33:00,
2013-04-09 04:43:00,21.0,11.0,-100.00,NE,44,3.0,14.0,64,0.00,,,0.01,0.000000,,2013-04-09 10:43:00,
2013-04-09 04:53:00,21.0,11.0,-100.00,NE,44,3.0,14.0,64,0.00,,,0.01,0.000000,,2013-04-09 10:53:00,
2013-04-09 05:02:00,21.0,11.0,-100.00,NE,44,3.0,14.0,64,0.00,,,0.01,0.000000,,2013-04-09 11:02:00,
2013-04-09 05:22:00,19.0,9.0,-100.00,NE,53,3.0,11.0,65,0.00,,,0.01,0.000000,,2013-04-09 11:22:00,
2013-04-09 05:32:00,19.0,9.0,-100.00,NE,53,3.0,11.0,65,0.00,,,0.01,0.000000,,2013-04-09 11:32:00,
2013-04-09 05:42:00,19.0,9.0,-100.00,NE,53,3.0,11.0,65,0.00,,,0.01,0.000000,,2013-04-09 11:42:00,
2013-04-09 05:52:00,19.0,9.0,-100.00,NE,53,3.0,11.0,65,0.00,,,0.01,0.000000,,2013-04-09 11:52:00,
2013-04-09 06:01:00,19.0,9.0,-100.00,NE,53,3.0,11.0,65,0.00,,,0.01,0.000000,,2013-04-09 12:01:00,
2013-04-09 06:22:00,20.0,8.0,-100.00,NE,42,3.0,10.0,60,0.00,,,0.01,0.000000,,2013-04-09 12:22:00,
2013-04-09 06:33:00,20.0,8.0,-100.00,NE,42,3.0,10.0,60,0.00,,,0.01,0.000000,,2013-04-09 12:33:00,
2013-04-09 06:43:00,20.0,8.0,-100.00,NE,42,3.0,10.0,60,0.00,,,0.01,0.000000,,2013-04-09 12:43:00,
2013-04-09 06:53:00,20.0,8.0,-100.00,NE,42,3.0,10.0,60,0.00,,,0.01,0.000000,,2013-04-09 12:53:00,
2013-04-09 07:02:00,20.0,8.0,-100.00,NE,42,3.0,10.0,60,0.00,,,0.01,0.000000,,2013-04-09 13:02:00,
2013-04-09 07:33:00,19.0,7.0,-100.00,SSW,207,3.0,12.0,60,0.00,,,0.01,0.000000,,2013-04-09 13:33:00,
2013-04-09 07:43:00,19.0,7.0,-100.00,SSW,207,3.0,12.0,60,0.00,,,0.01,0.000000,,2013-04-09 13:43:00,
2013-04-09 07:53:00,19.0,7.0,-100.00,SSW,207,3.0,12.0,60,0.00,,,0.01,0.000000,,2013-04-09 13:53:00,
2013-04-09 08:02:00,19.0,7.0,-100.00,SSW,207,3.0,12.0,60,0.00,,,0.01,0.000000,,2013-04-09 14:02:00,
2013-04-09 08:33:00,20.0,7.0,-100.00,NW,317,3.0,13.0,57,0.00,,,0.01,26.000000,,2013-04-09 14:33:00,
2013-04-09 08:43:00,20.0,7.0,-100.00,NW,317,3.0,13.0,57,0.00,,,0.01,26.000000,,2013-04-09 14:43:00,
2013-04-09 08:52:00,20.0,7.0,-100.00,NW,317,3.0,13.0,57,0.00,,,0.01,26.000000,,2013-04-09 14:52:00,
2013-04-09 09:01:00,20.0,7.0,-100.00,NW,317,3.0,13.0,57,0.00,,,0.01,26.000000,,2013-04-09 15:01:00,
2013-04-09 09:03:00,22.0,8.0,-100.00,NE,47,3.0,16.0,53,0.00,,,0.01,101.000000,,2013-04-09 15:03:00,
2013-04-09 09:34:00,22.0,8.0,-100.00,NE,47,3.0,16.0,53,0.00,,,0.01,101.000000,,2013-04-09 15:34:00,
2013-04-09 09:43:00,22.0,8.0,-100.00,NE,47,3.0,16.0,53,0.00,,,0.01,101.000000,,2013-04-09 15:43:00,
2013-04-09 09:53:00,22.0,8.0,-100.00,NE,47,3.0,16.0,53,0.00,,,0.01,101.000000,,2013-04-09 15:53:00,
2013-04-09 10:34:00,25.0,7.0,-100.00,NE,42,3.0,12.0,46,0.00,,,0.01,239.000000,,2013-04-09 16:34:00,
2013-04-09 10:42:00,25.0,7.0,-100.00,NE,42,3.0,12.0,46,0.00,,,0.01,239.000000,,2013-04-09 16:42:00,
2013-04-09 10:53:00,25.0,7.0,-100.00,NE,42,3.0,12.0,46,0.00,,,0.01,239.000000,,2013-04-09 16:53:00,
2013-04-09 11:02:00,25.0,7.0,-100.00,NE,42,3.0,12.0,46,0.00,,,0.01,239.000000,,2013-04-09 17:02:00,
2013-04-09 11:33:00,30.0,8.0,-100.00,NE,37,2.0,11.0,39,0.00,,,0.00,407.000000,,2013-04-09 17:33:00,
2013-04-09 11:43:00,30.0,8.0,-100.00,NE,37,2.0,11.0,39,0.00,,,0.00,407.000000,,2013-04-09 17:43:00,
2013-04-09 11:53:00,30.0,8.0,-100.00,NE,37,2.0,11.0,39,0.00,,,0.00,407.000000,,2013-04-09 17:53:00,
2013-04-09 12:02:00,30.0,8.0,-100.00,NE,37,2.0,11.0,39,0.00,,,0.00,407.000000,,2013-04-09 18:02:00,
2013-04-09 12:33:00,39.0,10.0,-100.00,NNE,25,3.0,14.0,30,0.00,,,0.00,823.000000,,2013-04-09 18:33:00,
2013-04-09 14:34:00,43.0,11.0,-100.00,NNW,336,3.0,12.0,27,0.00,,,0.00,936.000000,,2013-04-09 20:34:00,
2013-04-09 15:33:00,44.0,13.0,-100.00,NE,41,2.0,12.0,28,-99.99,,,0.00,812.000000,,2013-04-09 21:33:00,
2013-04-09 16:23:00,44.0,12.0,-100.00,SSW,208,2.0,12.0,27,0.00,,,0.00,714.000000,,2013-04-09 22:23:00,
2013-04-09 16:33:00,44.0,12.0,-100.00,SSW,208,2.0,12.0,27,0.00,,,0.00,714.000000,,2013-04-09 22:33:00,
2013-04-09 16:42:00,44.0,12.0,-100.00,SSW,208,2.0,12.0,27,0.00,,,0.00,714.000000,,2013-04-09 22:42:00,
2013-04-09 16:53:00,44.0,12.0,-100.00,SSW,208,2.0,12.0,27,0.00,,,0.00,714.000000,,2013-04-09 22:53:00,
2013-04-09 17:02:00,44.0,12.0,-100.00,SSW,208,2.0,12.0,27,0.00,,,0.00,714.000000,,2013-04-09 23:02:00,
2013-04-09 17:23:00,43.0,14.0,-100.00,NE,37,3.0,12.0,30,0.00,,,0.00,629.000000,,2013-04-09 23:23:00,
2013-04-09 17:33:00,43.0,14.0,-100.00,NE,37,3.0,12.0,30,0.00,,,0.00,629.000000,,2013-04-09 23:33:00,
2013-04-09 17:42:00,43.0,14.0,-100.00,NE,37,3.0,12.0,30,0.00,,,0.00,629.000000,,2013-04-09 23:42:00,
2013-04-09 17:53:00,43.0,14.0,-100.00,NE,37,3.0,12.0,30,0.00,,,0.00,629.000000,,2013-04-09 23:53:00,
2013-04-09 18:02:00,43.0,14.0,-100.00,NE,37,3.0,12.0,30,0.00,,,0.00,629.000000,,2013-04-10 00:02:00,
2013-04-09 18:33:00,35.0,14.0,-100.00,NNE,33,2.0,11.0,41,0.00,,,0.00,307.000000,,2013-04-10 00:33:00,
2013-04-09 18:42:00,35.0,14.0,-100.00,NNE,33,2.0,11.0,41,0.00,,,0.00,307.000000,,2013-04-10 00:42:00,
2013-04-09 18:52:00,35.0,14.0,-100.00,NNE,33,2.0,11.0,41,0.00,,,0.00,307.000000,,2013-04-10 00:52:00,
2013-04-09 19:01:00,35.0,14.0,-100.00,NNE,33,2.0,11.0,41,0.00,,,0.00,307.000000,,2013-04-10 01:01:00,
2013-04-09 19:23:00,34.0,15.0,-100.00,NE,46,1.0,9.0,46,0.00,,,0.00,49.000000,,2013-04-10 01:23:00,
2013-04-09 19:33:00,34.0,15.0,-100.00,NE,46,1.0,9.0,46,0.00,,,0.00,49.000000,,2013-04-10 01:33:00,
2013-04-09 19:43:00,34.0,15.0,-100.00,NE,46,1.0,9.0,46,0.00,,,0.00,49.000000,,2013-04-10 01:43:00,
2013-04-09 19:52:00,34.0,15.0,-100.00,NE,46,1.0,9.0,46,0.00,,,0.00,49.000000,,2013-04-10 01:52:00,
2013-04-09 20:01:00,34.0,15.0,-100.00,NE,46,1.0,9.0,46,0.00,,,0.00,49.000000,,2013-04-10 02:01:00,
2013-04-09 20:33:00,31.0,17.0,-100.00,NE,48,1.0,9.0,56,0.00,,,-99.99,24.000000,,2013-04-10 02:33:00,
2013-04-09 20:43:00,31.0,17.0,-100.00,NE,48,1.0,9.0,56,0.00,,,-99.99,24.000000,,2013-04-10 02:43:00,
2013-04-09 20:52:00,31.0,17.0,-100.00,NE,48,1.0,9.0,56,0.00,,,-99.99,24.000000,,2013-04-10 02:52:00,
2013-04-09 21:02:00,31.0,17.0,-100.00,NE,48,1.0,9.0,56,0.00,,,-99.99,24.000000,,2013-04-10 03:02:00,
2013-04-09 21:22:00,28.0,17.0,-100.00,NE,47,1.0,5.0,62,0.00,,,0.00,0.000000,,2013-04-10 03:22:00,
2013-04-09 21:33:00,28.0,17.0,-100.00,NE,47,1.0,5.0,62,0.00,,,0.00,0.000000,,2013-04-10 03:33:00,
2013-04-09 21:43:00,28.0,17.0,-100.00,NE,47,1.0,5.0,62,0.00,,,0.00,0.000000,,2013-04-10 03:43:00,
2013-04-09 21:52:00,28.0,17.0,-100.00,NE,47,1.0,5.0,62,0.00,,,0.00,0.000000,,2013-04-10 03:52:00,
2013-04-09 22:02:00,28.0,17.0,-100.00,NE,47,1.0,5.0,62,0.00,,,0.00,0.000000,,2013-04-10 04:02:00,
2013-04-09 22:23:00,27.0,20.0,-100.00,NE,46,1.0,5.0,75,0.00,,,0.00,0.000000,,2013-04-10 04:23:00,
2013-04-09 22:33:00,27.0,20.0,-100.00,NE,46,1.0,5.0,75,0.00,,,0.00,0.000000,,2013-04-10 04:33:00,
2013-04-09 22:43:00,27.0,20.0,-100.00,NE,46,1.0,5.0,75,0.00,,,0.00,0.000000,,2013-04-10 04:43:00,
2013-04-09 22:53:00,27.0,20.0,-100.00,NE,46,1.0,5.0,75,0.00,,,0.00,0.000000,,2013-04-10 04:53:00,
2013-04-09 23:02:00,27.0,20.0,-100.00,NE,46,1.0,5.0,75,0.00,,,0.00,0.000000,,2013-04-10 05:02:00,
2013-04-09 23:23:00,25.0,19.0,-100.00,NE,47,0.0,5.0,76,0.00,,,0.00,0.000000,,2013-04-10 05:23:00,
2013-04-09 23:33:00,25.0,19.0,-100.00,NE,47,0.0,5.0,76,0.00,,,0.00,0.000000,,2013-04-10 05:33:00,
2013-04-09 23:42:00,25.0,19.0,-100.00,NE,47,0.0,5.0,76,0.00,,,0.00,0.000000,,2013-04-10 05:42:00,
2013-04-09 23:53:00,25.0,19.0,-100.00,NE,47,0.0,5.0,76,0.00,,,0.00,0.000000,,2013-04-10 05:53:00,